Ashgabat, Turkmenistan

9:41 PM +05 on November 20, 2019 (GMT +0500)
Ashgabat

Weather History for UTAA - June, 2019

Change the Weather History Date:

Wednesday, June 5, 2019

  Actual Average Record
Temperature  
Mean Temperature 88 °F -  
Max Temperature 102 °F 97 °F - ()
Min Temperature 73 °F 70 °F - ()
Cooling Degree Days 22    
Growing Degree Days 38 (Base 50)    
Moisture  
Dew Point 50 °F    
Average Humidity 26    
Maximum Humidity 53    
Minimum Humidity 11    
Precipitation  
Precipitation 0.00 in 0.01 in - ()
Sea Level Pressure  
Sea Level Pressure 29.85 in    
Wind  
Wind Speed 5 mph ()    
Max Wind Speed 14 mph    
Max Gust Speed 18 mph    
Visibility 5.9 miles    
Events      
T = Trace of Precipitation, MM = Missing Value Source: Averaged Metar Reports

Daily Weather History Graph

Daily Weather History Graph

Search for Another Location

Airport or City:

Astronomy

Jun. 05, 2019 Rise Set
Actual Time 5:44 AM +05 8:25 PM +05
Civil Twilight 5:13 AM +05 8:56 PM +05
Nautical Twilight 4:35 AM +05 9:35 PM +05
Astronomical Twilight 3:51 AM +05 10:19 PM +05
Moon 7:25 AM +05 (6/5) 10:29 PM +05 (6/5)
Length of Visible Light 15h 42m
Length of Day
14h 40m
Waxing Crescent, 4% of the Moon is Illuminated
Jun 5
Waxing Crescent
Jun 10
First Quarter
Jun 17
Full
Jun 25
Last Quarter
Jul 3
New

Hourly Weather History & Observations

Time (+05) Temp. Dew Point Humidity Pressure Visibility Wind Dir Wind Speed Gust Speed Precip Events Conditions
12:00 AM 82.4 °F 50.0 °F 32% 29.86 in 6.2 mi Variable 2.3 mph - N/A   Unknown
1:00 AM 78.8 °F 50.0 °F 36% 29.86 in 5.6 mi SW 6.9 mph - N/A   Unknown
2:00 AM 79 °F 54 °F 32% 29.86 in 6 mi SSW 4.5 mph - -  
2:00 AM 77.0 °F 55.4 °F 47% 29.86 in 6.2 mi South 4.6 mph - N/A   Unknown
3:00 AM 77.0 °F 53.6 °F 44% 29.86 in 6.2 mi South 4.6 mph - N/A   Unknown
4:00 AM 80.6 °F 51.8 °F 37% 29.83 in 6.2 mi SSW 4.6 mph - N/A   Unknown
5:00 AM 77 °F 54 °F 35% 29.85 in 6 mi SSW 4.5 mph - -  
5:00 AM 75.2 °F 51.8 °F 44% 29.86 in 6.2 mi SSW 4.6 mph - N/A   Unknown
6:00 AM 73.4 °F 55.4 °F 53% 29.86 in 6.2 mi Calm Calm - N/A   Unknown
7:00 AM 75.2 °F 53.6 °F 47% 29.89 in 6.2 mi NW 6.9 mph 18.4 mph N/A   Unknown
8:00 AM 84 °F 49 °F 20% 29.88 in 6 mi NW 8.9 mph - -   Clear
8:00 AM 84.2 °F 50.0 °F 30% 29.89 in 6.2 mi WNW 13.8 mph - N/A   Unknown
9:00 AM 87.8 °F 50.0 °F 27% 29.89 in 6.2 mi WNW 13.8 mph - N/A   Unknown
10:00 AM 91.4 °F 50.0 °F 24% 29.89 in 6.2 mi NW 11.5 mph - N/A   Partly Cloudy
11:00 AM 91 °F 54 °F 19% 29.88 in 6 mi NW 8.9 mph - -   Scattered Clouds
11:00 AM 93.2 °F 51.8 °F 24% 29.89 in 6.2 mi WNW 9.2 mph - N/A   Partly Cloudy
12:00 PM 95.0 °F 50.0 °F 22% 29.89 in 5.6 mi NNW 6.9 mph - N/A   Partly Cloudy
1:00 PM 96.8 °F 48.2 °F 19% 29.89 in 6.2 mi West 4.6 mph - N/A   Partly Cloudy
2:00 PM 98 °F 49 °F 11% 29.84 in 6 mi WNW 6.7 mph - -   Partly Cloudy
2:00 PM 98.6 °F 42.8 °F 15% 29.86 in 6.2 mi West 4.6 mph - N/A   Scattered Clouds
3:00 PM 100.4 °F 41.0 °F 13% 29.83 in 6.2 mi SSW 4.6 mph - N/A   Scattered Clouds
4:00 PM 100.4 °F 42.8 °F 14% 29.83 in 5.0 mi South 4.6 mph - N/A   Scattered Clouds
5:00 PM 102 °F 52 °F 11% 29.80 in 6 mi NNW 2.2 mph - -   Partly Cloudy
5:00 PM 100.4 °F 42.8 °F 14% 29.83 in 5.6 mi NNW 6.9 mph - N/A   Scattered Clouds
6:00 PM 100.4 °F 44.6 °F 15% 29.83 in 6.2 mi NW 9.2 mph - N/A   Scattered Clouds
7:00 PM 98.6 °F 44.6 °F 16% 29.83 in 6.2 mi WNW 6.9 mph - N/A   Partly Cloudy
8:00 PM 99 °F 52 °F 13% 29.79 in 6 mi WNW 4.5 mph - -   Scattered Clouds
8:00 PM 96.8 °F 48.2 °F 19% 29.83 in 1.5 mi WNW 6.9 mph - N/A   Haze
9:00 PM 89.6 °F 50.0 °F 26% 29.83 in 5.6 mi WSW 6.9 mph - N/A   Scattered Clouds
10:00 PM 86.0 °F 50.0 °F 29% 29.83 in 5.6 mi WSW 6.9 mph - N/A   Scattered Clouds
11:00 PM 87 °F 55 °F 24% 29.81 in 6 mi SW 8.9 mph - -   Mostly Cloudy
11:00 PM 87.8 °F 48.2 °F 25% 29.83 in 5.6 mi SW 9.2 mph - N/A   Mostly Cloudy